{"data":{"norad_id":63345,"intl_designator":"2025-059B","name":"YUNYAO-1 44","alt_names":[],"object_type":"PAYLOAD","status":"ACTIVE","operator":null,"country":"PRC","launch_date":"2025-03-21","launch_site_code":"JSC","launch_vehicle":null,"mission":null,"orbit_class":"UNKNOWN","rcs_meters":null,"size_class":null,"mass_kg":null,"dimensions":null,"purposes":[],"wikipedia_slug":null,"has_3d_model":false,"image_url":null,"decayed_at":null,"tle_current":{"epoch":"2026-09-22T22:22:01.083072Z","epoch_age_seconds":96106,"freshness":"FRESH","line1":"1 63345U 25059B   26265.93195698  .00002451  00000+0  14816-3 0  9997","line2":"2 63345  97.6126  86.7903 0016656 177.4208 182.7111 15.11522334 83065","mean_motion":15.11522334,"eccentricity":0.0016656,"inclination_deg":97.6126,"raan_deg":86.7903,"arg_perigee_deg":177.4208,"mean_anomaly_deg":182.7111,"bstar":0.00014816,"rev_number":8306,"period_min":95.268192047766,"perigee_km":520.04790821562,"apogee_km":543.06547984918,"semimajor_km":6909.6936940324,"source":"CELESTRAK","updated_at":"2026-09-23T09:00:22.028600Z"}}}